Location: Ellerstadt
(49.4644°N, 8.2615°E)
Time: 05:00:07
(UTC+00:00)

Cosmos 968 Rocket - Pass Details

Date: 03 March 2021
Orbit: 740 x 771 km, 74.0° (Epoch: 11 April)

Event Time Altitude Azimuth Distance (km) Brightness Sun altitude
Rises 17:47:37 0° 336° (NNW) 3,250 7.1 -6.4°
Reaches altitude 10° 17:50:00 10° 336° (NNW) 2,322 6.3 -6.8°
Maximum altitude 17:55:18 88° 250° (WSW) 779 3.6 -7.6°
Drops below altitude 10° 18:00:34 10° 159° (SSE) 2,310 5.8 -8.5°
Sets 18:02:56 0° 159° (SSE) 3,232 6.5 -8.9°
